Location: Endfield
(51.6667°N, 0.0667°W)
Time: 11:23:29
(UTC+00:00)

GEOS 3 Rocket - Pass Details

Date: 19 May 2024
Orbit: 782 x 834 km, 115.0° (Epoch: 14 June)

Event Time Altitude Azimuth Distance (km) Brightness Sun altitude
Rises 21:38:51 0° 43° (NE) 3,345 7.0 -12.2°
Reaches altitude 10° 21:41:11 10° 45° (NE) 2,403 6.2 -12.4°
Maximum altitude 21:46:24 77° 132° (SE) 825 3.5 -12.8°
Drops below altitude 10° 21:51:31 10° 219° (SW) 2,357 5.8 -13.3°
Sets 21:53:47 0° 221° (SW) 3,277 6.6 -13.4°
